RH
59 66 62 54 45 37 29 21 20 19 13 8 6 4 6 11 11 4 2 2 3 3 3 3 2 2 2 2 18 39 5 3 3 3 4 4 4 5 4 4 4 4 4 4 4
32 30 28 24 16 13 11 10 8 6 5 5 10 12 7 3 2 2 3 3 3 3 3 2 3 3 3 3 5 9 4 4 4 4 4 4 4 4 4 4 5 6 7 8 8
9 9 9 8 8 8 7 5 5 8 14 15 8 3 3 3 2 3 4 3 3 4 4 3 4 4 4 4 4 4 4 4 4 4 4 4 4 4 4 5 7 9 12 14 15
8 8 8 7 6 6 9 12 16 17 8 3 3 3 4 4 3 4 4 4 5 5 5 6 7 7 6 6 5 6 5 5 4 4 4 4 5 6 9 12 15 15 16 16 16
5 6 7 9 13 17 18 16 9 3 3 3 4 4 4 3 4 4 5 6 7 8 9 9 10 8 8 8 6 5 4 4 4 4 5 6 9 12 13 14 10 8 8 10 13
16 18 20 19 18 17 13 5 3 3 4 4 5 4 4 4 6 7 8 9 10 10 11 11 11 10 8 6 6 6 4 4 5 6 7 10 10 10 8 8 7 6 6 8 12
20 19 16 14 11 6 3 3 3 4 4 5 5 5 5 6 6 8 10 10 11 12 11 12 12 8 7 7 6 6 5 6 7 7 8 7 8 5 6 9 6 5 5 6 6
15 12 9 5 4 3 3 3 4 4 5 5 5 5 6 7 9 9 9 10 11 11 13 14 12 9 8 8 8 6 6 6 7 9 9 8 7 8 9 8 6 6 4 5 5
9 6 3 3 3 4 4 4 5 5 4 5 5 5 8 9 8 8 10 10 10 11 12 11 11 12 11 10 8 10 11 9 10 10 9 8 8 8 9 8 7 6 4 5 6
4 3 3 3 4 4 4 4 4 5 5 6 5 7 9 8 8 8 10 10 11 10 10 9 12 14 13 13 19 14 10 9 9 10 10 9 9 10 9 9 7 6 6 6 7
2 2 3 3 4 4 4 4 4 5 6 6 6 8 7 8 9 9 9 10 9 9 11 11 16 14 14 15 16 16 10 10 11 11 11 10 10 12 12 10 10 7 7 8 9
2 2 3 4 4 4 4 4 4 5 6 6 7 8 8 7 9 9 10 9 9 10 12 9 13 12 13 16 16 17 12 11 13 12 11 11 12 13 14 14 10 9 8 10 11
2 2 3 4 4 4 4 4 4 6 7 7 7 7 7 8 8 8 9 9 9 9 9 13 13 12 14 14 15 18 15 14 13 12 11 12 12 14 16 17 12 13 11 11 13
2 3 3 4 4 4 4 4 5 6 6 7 8 8 8 8 7 7 7 8 8 8 8 10 9 12 14 14 16 17 18 18 17 13 13 13 14 16 20 19 18 14 12 11 12
2 3 3 4 4 4 4 4 6 6 6 8 8 7 8 8 6 6 5 5 6 8 8 8 10 12 14 17 18 19 21 22 18 15 13 16 18 17 21 20 17 13 12 12 13
2 2 3 4 4 4 4 4 5 7 8 8 7 7 7 7 6 6 5 5 6 7 8 9 12 14 16 19 20 22 15 17 18 17 14 17 17 19 20 19 13 12 12 13 14
2 2 3 3 4 4 5 5 5 7 7 6 6 6 7 6 5 5 5 5 5 6 6 8 13 17 20 20 20 20 23 23 23 26 22 19 17 20 18 15 12 13 13 14 15
2 2 2 3 3 4 4 4 5 6 6 7 6 6 5 5 6 6 6 5 6 8 9 14 17 19 20 21 23 24 24 21 23 22 19 16 18 20 17 16 17 14 14 15 16
6 2 2 3 3 3 4 4 5 5 6 6 6 6 6 6 6 6 6 6 6 6 9 12 14 19 20 20 21 24 26 27 27 20 16 19 21 22 18 19 17 16 15 16 17
17 8 3 2 2 3 3 3 4 5 6 6 7 7 8 6 7 7 6 6 6 5 6 9 11 15 17 18 21 24 31 27 24 22 19 21 20 24 22 18 20 18 17 18 19
21 21 12 6 2 2 2 3 3 4 4 5 5 5 6 6 7 6 7 6 6 5 5 6 8 11 14 16 18 24 27 28 32 28 22 21 24 25 23 19 24 18 20 20 22
28 25 24 19 9 5 3 3 3 3 4 4 5 5 5 5 5 5 7 7 6 6 5 6 9 13 14 16 19 29 34 33 37 34 24 24 24 24 27 24 23 27 22 22 23
34 32 30 25 26 21 14 9 6 4 4 4 4 5 5 6 6 5 6 7 6 6 5 5 10 13 15 15 18 27 41 36 34 38 33 26 27 26 26 29 26 28 28 24 25
21 26 32 33 32 26 26 26 24 18 12 8 6 5 4 5 5 5 4 6 6 6 6 5 8 13 14 15 17 29 46 36 34 34 30 24 27 29 31 32 32 25 33 32 29
21 21 19 29 35 35 31 29 28 30 28 26 24 21 16 10 6 5 4 4 5 5 5 5 8 11 11 12 20 35 47 42 35 33 33 27 28 30 31 34 35 33 32 35 35
18 19 19 20 21 25 34 35 34 33 34 32 33 32 34 26 17 11 8 7 6 5 5 6 8 10 10 14 27 37 45 41 37 33 33 33 32 30 32 30 30 34 37 38 38
21 22 24 25 26 32 35 35 37 37 37 36 36 36 36 41 37 29 18 12 9 8 7 8 9 10 13 19 26 33 35 38 38 34 31 33 32 33 32 33 35 37 39 40 42
Wind_Speed
23 22 22 22 21 20 20 18 16 14 14 12 10 11 10 10 6 11 14 15 13 11 11 5 8 14 14 15 15 10 9 11 11 11 11 12 13 15 17 19 21 23 26 27 28
23 23 22 22 21 19 19 17 16 15 15 15 14 16 15 14 11 19 17 14 14 16 13 15 17 16 18 16 15 7 10 11 12 13 13 14 15 17 19 20 20 21 24 28 32
22 21 21 20 19 17 17 16 15 14 15 17 17 18 14 12 8 19 17 17 17 18 17 19 19 18 19 18 15 14 14 14 14 14 13 15 17 19 21 21 27 31 33 33 35
20 20 19 18 16 16 16 15 16 18 21 21 19 21 20 20 19 18 19 18 18 19 17 18 18 16 16 16 15 17 16 16 16 15 16 18 19 23 26 28 30 32 34 37 38
18 17 16 15 15 16 17 19 21 21 21 22 21 18 18 21 18 20 20 19 17 17 15 15 15 13 13 14 16 15 15 15 16 17 18 21 22 25 30 32 36 39 40 41 42
16 15 16 17 18 19 21 23 21 23 22 20 18 17 16 23 22 20 20 16 15 15 13 12 13 12 12 14 13 14 13 13 15 17 20 22 24 28 32 33 35 40 44 45 46
14 16 17 19 21 22 23 23 23 22 19 18 16 17 21 21 19 17 15 16 16 15 14 16 15 12 11 12 13 12 11 12 15 19 22 23 22 27 31 34 38 40 45 48 51
15 17 20 23 24 23 24 23 22 19 17 18 18 18 22 18 16 17 18 18 17 17 21 18 16 17 15 13 7 10 11 16 18 20 24 29 30 31 34 37 40 42 47 49 53
17 21 23 24 25 24 22 21 19 17 20 20 18 17 17 17 17 18 16 17 15 19 19 21 24 20 16 7 11 16 12 13 13 20 25 28 31 31 34 37 39 42 43 48 50
21 23 23 25 23 22 20 18 18 19 18 16 16 15 17 15 15 15 17 15 14 14 14 16 23 23 24 22 13 8 8 11 15 19 24 28 32 36 36 38 40 41 48 49 52
20 21 23 23 21 19 18 14 20 18 17 13 14 14 13 13 13 13 14 11 9 17 17 18 19 18 18 19 16 10 9 10 14 18 23 25 31 36 40 43 43 44 45 49 57
19 20 20 19 17 15 15 15 19 15 15 12 12 13 12 10 12 13 9 10 13 15 11 15 17 17 18 18 19 14 10 11 13 17 22 25 30 36 41 44 44 46 50 56 60
18 18 18 16 14 13 13 15 15 16 11 12 11 10 9 7 10 11 11 11 12 12 15 16 15 16 17 16 17 17 14 13 14 14 19 26 33 37 41 46 50 51 52 57 61
17 17 15 13 11 12 12 15 13 11 9 10 9 8 6 6 8 9 11 11 11 12 13 14 16 16 15 16 18 18 17 15 13 13 19 27 33 36 39 44 47 51 52 55 60
14 15 14 12 11 10 11 12 11 9 11 7 5 4 3 5 7 8 10 10 12 13 14 16 16 17 17 16 16 18 17 17 13 15 20 28 29 35 38 40 44 47 51 54 58
11 13 13 12 11 10 11 11 10 8 6 5 2 1 1 3 5 7 9 11 13 14 15 16 17 18 18 18 18 16 14 14 17 19 23 24 26 32 36 40 42 46 49 53 58
10 12 14 12 11 10 11 10 11 9 6 6 5 4 3 5 7 8 10 11 13 16 17 13 16 19 20 20 17 16 16 20 22 22 19 21 26 31 35 38 42 46 49 52 56
7 12 14 14 13 11 12 12 12 12 10 7 7 7 7 8 9 11 12 13 14 15 15 16 20 19 21 21 20 18 16 17 18 17 16 18 24 30 33 39 43 45 46 50 54
4 8 13 15 15 15 14 13 14 13 12 12 12 12 11 12 13 13 13 14 15 15 16 16 16 18 20 21 22 22 19 16 17 14 17 22 26 31 34 37 39 42 44 48 52
4 6 9 14 17 17 17 15 14 15 15 15 16 14 16 14 16 15 15 15 15 16 17 18 19 17 19 21 21 21 19 17 17 17 16 18 21 26 28 31 36 38 43 47 51
6 6 7 10 14 18 20 19 17 18 18 18 18 18 18 18 18 18 18 16 17 18 19 20 20 21 19 20 24 24 20 16 16 15 18 19 20 24 27 29 33 36 41 44 48
9 8 8 9 11 14 18 16 20 21 21 21 21 21 21 20 20 21 21 20 19 20 21 22 21 22 21 24 20 20 20 20 17 17 18 20 18 22 27 28 31 37 39 42 46
10 11 10 10 11 14 13 15 18 20 23 24 25 24 23 25 24 23 22 22 22 22 23 23 22 21 26 26 24 19 20 17 18 13 15 18 23 23 27 32 32 34 37 39 43
12 11 12 12 12 15 15 15 16 16 18 20 23 24 27 28 28 29 27 22 26 25 25 25 22 23 24 25 28 24 23 19 16 16 15 16 15 18 23 27 29 30 34 37 40
15 14 13 13 14 15 15 15 17 17 17 17 17 19 21 23 27 27 29 25 27 27 27 25 23 25 24 26 25 24 22 22 19 17 16 17 19 18 20 22 26 29 31 35 38
15 16 15 16 16 16 16 17 17 17 16 18 19 20 19 20 21 23 23 25 24 19 26 24 26 27 23 25 22 22 23 21 19 19 16 19 18 19 21 24 26 29 31 33 36
16 17 19 19 19 18 16 18 18 18 16 18 19 21 20 20 20 19 21 22 24 22 22 24 26 27 21 23 20 18 21 21 17 19 19 21 19 19 22 23 24 27 30 32 33
Wind_Direction
113 116 113 113 111 114 115 116 118 125 122 118 116 112 115 103 117 103 85 78 75 70 69 59 82 84 88 81 85 69 46 32 25 20 12 3 355 345 340 334 330 326 323 321 316
106 106 106 105 106 111 115 119 121 120 121 118 115 112 106 107 103 87 80 82 81 79 83 89 78 73 70 66 69 73 45 39 26 19 14 7 2 354 349 344 336 326 321 319 315
100 103 101 105 108 110 111 112 112 111 111 109 111 105 106 113 109 91 93 89 86 82 76 71 68 66 68 64 63 63 51 45 39 31 21 14 5 356 343 339 335 334 334 330 326
99 99 104 107 109 108 108 109 110 113 116 115 111 109 107 98 92 98 95 86 81 76 70 65 60 54 55 56 54 53 45 40 34 24 13 6 356 350 345 345 346 345 343 341 335
100 104 106 108 107 107 109 111 115 116 115 114 111 107 104 103 100 99 91 83 75 70 59 58 52 47 48 47 45 45 43 36 26 15 4 359 354 356 353 351 351 349 351 348 343
100 104 109 110 111 113 116 116 116 116 115 110 105 102 108 102 98 89 79 69 61 60 53 55 50 46 49 52 46 40 39 29 18 7 358 5 352 354 351 351 353 352 349 351 351
106 110 112 114 118 120 120 118 117 115 112 105 104 103 104 93 83 72 70 69 64 61 60 53 47 49 51 54 46 37 32 23 18 12 3 357 357 350 351 354 354 345 350 355 355
111 113 117 119 121 121 119 118 116 112 110 107 105 110 93 86 80 80 73 72 70 67 58 56 62 57 50 54 42 48 39 27 21 17 6 3 1 353 355 354 352 352 352 351 350
116 121 123 121 123 121 120 117 111 108 108 108 115 100 88 85 78 75 76 75 69 64 65 56 54 50 52 56 40 26 9 15 27 15 13 8 358 0 359 357 355 352 350 349 349
122 124 124 124 122 122 119 117 115 116 108 108 106 89 90 85 73 68 68 67 64 67 58 52 41 36 33 31 27 7 10 20 9 9 9 3 1 359 359 358 355 351 352 352 346
123 126 128 129 128 126 121 121 121 117 111 113 100 94 90 75 63 62 64 61 50 49 39 40 35 29 27 24 22 14 14 17 9 6 4 1 0 -0 359 1 356 356 351 351 355
129 133 136 133 127 125 123 133 130 120 114 109 108 103 87 64 60 60 59 53 44 41 34 35 26 18 18 12 11 12 10 16 0 1 352 359 4 360 359 358 353 355 355 356 355
142 144 145 138 130 127 129 140 139 128 120 117 112 98 76 64 59 52 50 47 40 29 22 21 7 4 8 1 7 9 5 4 355 357 348 358 4 359 358 355 357 359 357 358 359
156 155 153 146 141 138 138 146 146 135 143 127 116 96 78 64 52 44 34 28 18 10 6 358 356 357 350 356 359 6 6 355 340 358 1 0 -0 359 1 357 359 360 360 358 359
172 167 163 161 153 152 151 156 156 154 152 145 129 107 87 53 32 27 20 9 353 345 345 349 353 354 353 355 353 355 -0 354 342 1 358 8 358 354 359 357 358 359 359 357 -0
185 184 180 176 172 166 167 171 177 169 167 175 189 191 12 3 2 3 358 353 344 337 341 346 355 353 354 354 350 343 336 349 1 10 6 359 356 357 355 359 358 0 359 359 359
190 198 195 193 189 186 190 192 195 193 198 209 230 254 290 310 323 328 328 331 335 339 343 349 350 354 352 347 346 348 348 356 7 358 356 354 359 357 358 358 6 2 1 0 1
199 209 210 205 206 206 208 210 214 220 227 239 254 268 280 292 298 304 313 323 332 336 336 342 346 346 348 348 349 343 344 345 -0 356 353 356 1 -0 -0 5 2 1 -0 1 2
191 216 222 223 222 221 224 222 225 233 239 247 253 259 267 278 287 296 310 320 326 329 329 330 339 338 337 340 342 344 339 340 345 354 2 360 -0 3 2 2 1 359 359 360 1
236 220 226 232 234 236 238 240 241 244 248 251 258 263 274 279 288 294 303 310 316 321 324 323 321 327 331 333 333 333 335 329 340 350 357 3 358 0 358 3 3 360 360 359 360
248 244 236 235 236 242 247 250 252 255 258 261 265 269 274 281 285 290 293 300 305 317 323 319 319 319 321 325 330 331 331 331 330 343 346 351 359 1 -0 2 1 4 4 360 358
249 252 250 248 245 247 251 258 253 256 261 264 267 270 274 279 283 287 288 296 302 309 317 319 318 319 323 320 330 329 328 324 325 336 334 339 354 357 2 357 4 2 2 2 359
263 252 256 259 260 261 261 259 263 263 264 268 271 273 275 278 283 285 288 289 297 304 310 314 315 316 320 324 326 323 319 315 312 317 323 329 335 348 354 1 358 -0 1 2 1
263 263 259 263 266 266 270 271 269 271 272 273 274 275 275 276 279 283 283 285 291 296 301 304 307 309 315 318 318 324 322 314 311 308 313 319 326 339 347 351 353 355 358 -0 2
256 261 264 266 268 272 271 271 273 273 278 279 283 283 283 281 280 280 281 286 284 291 294 297 300 304 312 313 316 319 314 309 310 302 303 309 318 333 339 341 344 350 353 357 359
261 261 262 266 269 272 276 276 277 279 277 279 281 283 287 290 289 289 286 287 289 285 288 292 298 303 313 309 316 315 310 308 309 303 294 299 309 322 327 328 341 347 351 352 355
256 260 266 270 271 271 271 275 276 277 277 282 283 285 285 287 288 292 290 289 290 290 286 292 296 299 311 309 318 318 313 311 307 301 295 290 302 314 317 326 333 341 344 348 349